Probability
0 0 0 0 10 39 0 0 0 0 0 0 0 0 0 6 58 90 0 0 0 0 16 100 100 100 100 100 100 100 97 94 97 97 97 81 58 42 26 29 32 42 35 26 29 23 16 16 26
0 0 0 0 6 0 0 0 0 0 0 0 0 0 0 0 0 0 0 0 3 0 3 65 100 100 100 100 100 100 97 94 97 94 94 81 61 42 19 16 16 13 16 13 13 13 10 6 6
0 0 0 0 0 0 0 0 0 0 0 0 0 0 0 0 0 0 0 0 3 0 0 97 100 100 100 100 100 100 97 97 97 97 90 71 61 45 29 26 19 16 16 10 6 6 6 6 3
0 0 0 0 0 0 0 0 0 0 0 0 0 0 0 0 0 0 0 0 0 0 10 94 100 100 100 100 100 100 100 100 97 90 74 68 58 45 35 39 29 23 10 13 16 16 16 23 23
0 0 0 0 0 0 0 0 0 0 0 0 0 0 6 0 0 3 0 0 0 0 29 71 100 100 100 100 100 100 100 100 94 84 65 61 55 55 45 29 19 13 10 3 10 16 26 39 55
0 0 0 0 0 0 0 0 0 0 0 0 0 3 0 0 0 0 0 0 0 19 19 55 97 100 100 100 100 100 100 97 97 74 58 58 55 52 45 29 26 19 16 19 19 26 42 48 77
0 0 0 0 0 0 0 0 0 0 0 0 0 3 3 0 0 0 0 0 3 26 29 16 77 97 97 97 97 97 100 97 97 94 81 68 68 65 58 61 55 55 45 52 42 42 45 61 84
0 0 0 0 0 0 0 0 0 0 0 0 0 0 6 3 0 0 0 0 13 45 52 26 16 61 87 90 97 97 97 100 100 97 97 84 71 71 77 90 90 90 81 65 68 71 74 84 94
0 0 0 0 0 0 0 0 0 0 0 0 0 0 10 3 0 0 0 3 29 61 74 35 23 55 55 19 77 94 97 100 100 100 100 100 97 74 90 90 100 97 94 90 87 87 90 97 97
0 0 0 0 0 0 0 0 0 0 0 0 0 10 3 3 6 13 10 10 32 77 84 71 58 61 42 16 52 65 77 94 94 97 100 100 100 100 100 97 100 100 100 97 100 100 100 100 84
0 0 0 0 0 0 0 0 0 0 0 0 3 23 16 10 23 45 35 55 90 90 90 97 90 94 77 65 84 61 65 90 90 94 100 100 100 100 100 100 100 100 100 97 97 100 100 97 97
0 0 0 0 0 0 0 0 0 0 0 0 3 29 35 42 52 65 87 97 97 97 90 94 100 100 100 97 94 94 87 94 94 97 100 100 100 100 100 100 100 100 97 97 100 100 100 100 100
0 0 0 0 0 0 0 0 0 0 0 0 3 26 42 58 68 87 84 84 97 100 100 100 100 100 100 100 100 97 94 94 97 100 100 100 100 100 100 100 100 100 100 100 100 100 100 100 100
0 0 0 0 0 0 0 0 0 0 0 0 3 13 32 45 71 87 97 100 100 100 100 100 100 100 100 100 100 100 100 100 100 100 100 100 100 100 100 100 100 100 100 100 100 100 100 100 100
0 0 0 0 0 0 0 0 0 0 0 0 0 13 19 39 65 81 94 100 100 100 100 100 100 100 100 100 100 100 100 100 100 100 100 100 100 100 100 100 100 100 100 100 100 100 100 100 100
0 0 0 0 0 0 0 0 0 0 0 0 0 10 19 48 55 74 94 100 100 100 100 100 100 100 100 100 100 100 100 100 100 100 100 100 100 100 100 100 100 100 100 100 100 97 97 97 94
0 0 0 0 0 0 0 0 0 0 0 0 3 16 19 45 58 74 81 90 100 100 100 100 100 100 100 100 100 100 100 100 100 100 100 100 100 100 100 100 100 100 100 97 97 97 97 87 84
0 0 0 0 0 0 0 0 0 0 0 0 10 19 39 52 71 74 87 90 100 100 100 100 100 100 100 100 100 100 100 100 100 100 100 100 100 100 100 100 100 97 97 94 90 87 87 77 71
0 0 0 0 0 0 0 0 0 0 0 0 10 23 55 74 74 87 94 97 97 100 100 100 100 100 100 100 100 100 100 100 100 100 100 100 100 100 100 100 100 90 87 81 81 87 77 65 68
0 0 0 0 0 0 0 0 0 0 0 0 13 42 52 71 77 81 90 94 97 97 97 97 100 100 100 100 100 100 100 100 100 97 97 97 100 100 97 97 94 90 84 87 77 68 55 45 39
0 0 0 0 0 0 0 0 0 0 3 10 16 42 42 58 55 68 77 84 84 87 97 97 100 97 97 97 97 100 100 100 100 100 100 100 97 94 94 87 87 87 81 77 65 55 55 32 29
0 0 0 0 0 0 0 0 0 0 6 16 16 32 39 39 45 45 42 52 61 71 81 97 100 100 100 100 97 97 97 100 100 100 100 100 97 90 87 87 90 87 77 74 58 52 48 42 29
0 0 0 0 0 0 0 0 0 0 3 10 19 29 32 29 32 32 26 26 32 32 45 77 94 100 100 100 100 100 100 100 100 100 100 100 97 94 87 87 81 87 74 74 61 58 61 48 29
0 0 0 0 0 0 0 0 0 0 3 6 23 23 26 19 23 16 13 16 16 23 32 48 87 100 97 97 97 97 94 94 94 97 94 94 90 87 90 87 84 81 77 68 65 61 55 45 42
0 0 0 0 0 0 0 0 0 0 3 3 13 6 6 10 10 13 10 10 10 10 10 35 68 81 90 90 90 90 90 87 87 87 84 87 90 90 84 87 84 84 77 74 71 65 52 48 39
0 0 0 0 0 0 0 0 0 0 0 0 0 0 3 6 6 6 6 3 3 3 16 23 52 68 71 81 84 87 81 74 71 74 74 71 77 77 77 74 77 74 77 61 77 61 58 52 48
0 0 0 0 0 0 0 0 0 0 0 0 0 0 0 3 3 3 0 0 0 0 10 19 35 61 74 74 74 71 55 45 45 52 55 48 58 55 48 52 58 61 58 42 55 45 42 45 52
0 0 0 0 0 0 0 0 0 3 0 0 0 0 0 0 0 3 3 3 3 10 16 19 32 45 58 55 52 19 32 29 32 29 35 35 35 39 42 29 29 23 19 23 32 45 29 35 32
0 0 0 0 0 0 0 0 0 10 3 0 0 0 0 0 0 0 3 6 3 0 3 26 23 35 39 35 35 26 16 10 10 16 13 13 16 19 16 19 16 13 23 16 23 26 23 10 10
0 0 0 0 0 0 3 0 0 0 0 0 0 0 0 0 0 0 0 3 3 6 13 16 29 32 32 29 23 19 16 6 6 6 0 3 6 6 10 13 10 10 10 13 13 6 10 3 0
Height
5927 5927 5928 5928 5927 5926 5928 5930 5928 5928 5928 5927 5928 5927 5927 5928 5929 5931 5930 5929 5930 5930 5930 5930 5931 5930 5930 5930 5929 5929 5928 5927 5926 5925 5923 5922 5921 5920 5918 5917 5916 5914 5913 5912 5911 5910 5908 5908 5907
5929 5930 5930 5930 5928 5929 5931 5930 5930 5930 5930 5929 5929 5929 5929 5929 5929 5930 5930 5930 5931 5931 5931 5931 5931 5931 5931 5930 5930 5930 5929 5928 5927 5926 5925 5923 5922 5921 5919 5918 5917 5916 5914 5913 5912 5911 5910 5909 5908
5930 5931 5931 5930 5930 5931 5932 5932 5931 5931 5930 5930 5930 5930 5931 5930 5930 5930 5930 5931 5931 5931 5931 5931 5931 5931 5931 5931 5930 5930 5929 5929 5928 5927 5925 5924 5923 5921 5920 5919 5918 5917 5915 5914 5913 5911 5910 5909 5908
5930 5932 5933 5933 5934 5935 5934 5933 5932 5931 5931 5931 5931 5931 5931 5931 5931 5931 5931 5931 5931 5931 5931 5931 5931 5931 5931 5931 5930 5930 5929 5929 5928 5927 5926 5924 5923 5922 5921 5920 5918 5917 5916 5915 5913 5912 5911 5910 5909
5930 5932 5932 5935 5936 5936 5935 5934 5933 5932 5931 5931 5931 5931 5931 5932 5932 5932 5931 5931 5931 5931 5931 5931 5931 5931 5931 5930 5930 5930 5929 5929 5928 5927 5926 5925 5923 5922 5921 5920 5919 5917 5916 5915 5914 5913 5911 5910 5909
5929 5931 5932 5934 5935 5936 5935 5934 5933 5932 5932 5931 5931 5930 5931 5931 5932 5932 5931 5931 5931 5931 5931 5930 5930 5930 5930 5930 5929 5929 5929 5928 5927 5927 5925 5924 5923 5922 5921 5919 5918 5917 5916 5915 5914 5913 5912 5910 5909
5929 5930 5931 5935 5936 5936 5934 5933 5933 5932 5931 5931 5930 5930 5930 5930 5931 5930 5930 5930 5930 5930 5930 5930 5929 5929 5929 5929 5928 5928 5927 5927 5926 5925 5924 5923 5922 5921 5920 5919 5918 5917 5916 5915 5914 5912 5911 5910 5909
5927 5930 5931 5935 5937 5935 5933 5933 5932 5931 5931 5931 5930 5929 5930 5929 5929 5929 5929 5928 5929 5929 5929 5929 5928 5928 5928 5927 5927 5926 5926 5925 5924 5923 5922 5922 5921 5920 5918 5917 5917 5916 5915 5914 5913 5912 5910 5909 5908
5926 5930 5930 5933 5934 5933 5931 5932 5932 5931 5930 5930 5929 5929 5928 5928 5927 5927 5927 5927 5927 5927 5928 5927 5927 5926 5926 5925 5925 5924 5924 5923 5922 5921 5920 5920 5919 5918 5917 5916 5915 5914 5913 5912 5911 5910 5909 5908 5907
5925 5927 5929 5930 5930 5931 5931 5931 5930 5930 5930 5928 5928 5927 5927 5927 5926 5926 5926 5925 5925 5925 5925 5925 5925 5924 5924 5923 5922 5922 5921 5921 5920 5919 5918 5917 5917 5916 5915 5914 5913 5912 5911 5910 5909 5908 5907 5906 5905
5922 5924 5925 5926 5927 5928 5929 5930 5929 5930 5929 5927 5925 5926 5925 5925 5925 5925 5924 5924 5923 5923 5923 5923 5923 5922 5921 5921 5920 5919 5919 5918 5917 5916 5916 5915 5914 5913 5913 5911 5910 5909 5908 5907 5906 5905 5904 5903 5902
5919 5921 5922 5923 5924 5926 5927 5927 5928 5928 5927 5925 5924 5924 5923 5923 5923 5922 5922 5922 5921 5921 5921 5920 5920 5919 5918 5918 5917 5916 5916 5915 5914 5913 5912 5912 5911 5910 5910 5909 5908 5906 5905 5904 5903 5902 5901 5900 5899
5915 5917 5918 5920 5921 5923 5924 5925 5925 5925 5924 5923 5922 5922 5921 5920 5920 5919 5919 5919 5918 5918 5917 5917 5916 5916 5915 5914 5913 5913 5912 5911 5910 5910 5909 5908 5907 5906 5905 5904 5903 5902 5901 5900 5899 5898 5897 5896 5895
5910 5912 5914 5916 5918 5918 5919 5921 5922 5921 5919 5919 5919 5918 5918 5917 5917 5916 5915 5915 5914 5914 5913 5912 5912 5911 5910 5909 5908 5907 5907 5906 5905 5905 5904 5903 5901 5901 5900 5899 5898 5896 5895 5894 5893 5892 5891 5890 5889
5906 5909 5911 5913 5913 5913 5913 5916 5917 5916 5913 5914 5914 5914 5913 5912 5912 5911 5910 5909 5909 5908 5908 5907 5906 5905 5905 5904 5902 5901 5901 5900 5899 5898 5897 5897 5895 5895 5894 5893 5892 5890 5889 5888 5886 5885 5884 5883 5882
5903 5905 5907 5909 5908 5907 5909 5911 5911 5908 5907 5907 5908 5908 5908 5906 5906 5905 5904 5903 5902 5901 5901 5901 5900 5899 5898 5897 5896 5895 5894 5893 5892 5891 5890 5890 5889 5887 5887 5885 5884 5883 5882 5880 5879 5877 5876 5875 5874
5899 5901 5903 5906 5903 5901 5902 5904 5906 5902 5900 5900 5901 5900 5900 5900 5899 5898 5898 5896 5895 5894 5894 5894 5893 5891 5891 5889 5888 5887 5886 5885 5884 5883 5882 5882 5881 5880 5878 5877 5876 5874 5873 5872 5870 5869 5868 5866 5865
5896 5899 5902 5904 5901 5894 5894 5896 5900 5897 5893 5893 5893 5893 5891 5891 5891 5890 5889 5888 5887 5886 5885 5885 5884 5882 5881 5880 5880 5879 5878 5877 5876 5874 5874 5873 5872 5872 5870 5869 5867 5866 5864 5863 5861 5860 5858 5857 5855
5887 5891 5893 5895 5894 5889 5887 5889 5892 5891 5887 5885 5885 5884 5883 5882 5881 5881 5880 5879 5877 5876 5876 5876 5875 5873 5872 5871 5871 5869 5869 5868 5867 5866 5865 5864 5863 5862 5861 5860 5859 5857 5855 5853 5852 5850 5848 5847 5845
5884 5886 5888 5889 5887 5884 5882 5882 5883 5882 5879 5877 5877 5876 5874 5873 5872 5872 5871 5870 5869 5867 5867 5867 5866 5864 5863 5862 5861 5860 5859 5859 5858 5857 5856 5855 5854 5852 5851 5850 5849 5847 5845 5843 5842 5840 5839 5837 5835
5881 5882 5882 5882 5880 5879 5878 5877 5877 5876 5872 5870 5868 5867 5866 5865 5864 5863 5862 5861 5860 5859 5858 5857 5856 5855 5853 5852 5851 5850 5849 5849 5848 5847 5846 5845 5844 5842 5841 5840 5839 5837 5835 5834 5832 5831 5829 5828 5827
5877 5876 5875 5875 5875 5875 5874 5872 5874 5872 5867 5863 5860 5858 5858 5857 5855 5854 5853 5852 5851 5849 5848 5847 5846 5845 5844 5842 5841 5840 5839 5838 5838 5837 5835 5834 5833 5832 5830 5830 5828 5827 5825 5824 5823 5822 5821 5820 5819
5872 5871 5870 5870 5870 5869 5869 5868 5869 5868 5862 5856 5853 5851 5851 5850 5848 5846 5844 5843 5841 5840 5839 5838 5836 5835 5834 5832 5830 5829 5828 5827 5826 5825 5824 5823 5822 5821 5819 5818 5817 5816 5815 5814 5814 5812 5811 5810 5810
5867 5867 5866 5866 5866 5866 5865 5863 5862 5859 5855 5853 5849 5847 5845 5843 5841 5839 5837 5835 5833 5831 5829 5828 5827 5825 5824 5822 5821 5819 5817 5816 5814 5813 5811 5810 5809 5809 5808 5807 5806 5805 5804 5804 5803 5802 5801 5801 5800
5864 5864 5864 5864 5864 5862 5859 5857 5857 5853 5852 5850 5847 5843 5839 5836 5834 5832 5830 5827 5825 5823 5821 5819 5818 5816 5815 5813 5811 5809 5807 5805 5803 5801 5799 5798 5797 5796 5795 5794 5793 5792 5793 5793 5792 5791 5791 5790 5791
5861 5861 5861 5860 5860 5859 5858 5857 5856 5849 5847 5845 5842 5838 5834 5831 5827 5825 5822 5820 5818 5815 5813 5811 5809 5808 5806 5804 5801 5799 5797 5794 5792 5790 5787 5785 5783 5782 5782 5780 5780 5779 5780 5780 5781 5781 5781 5781 5782
5858 5857 5857 5856 5855 5854 5856 5855 5849 5844 5840 5837 5835 5832 5828 5824 5820 5817 5814 5812 5809 5807 5805 5803 5801 5799 5796 5794 5792 5789 5786 5783 5780 5777 5775 5772 5770 5768 5767 5766 5766 5766 5766 5767 5768 5770 5770 5771 5772
5856 5855 5854 5852 5850 5849 5850 5850 5846 5838 5834 5831 5828 5825 5820 5816 5813 5809 5806 5803 5800 5798 5796 5794 5792 5789 5787 5784 5782 5779 5776 5773 5769 5765 5762 5759 5756 5753 5752 5751 5752 5752 5752 5754 5756 5758 5759 5760 5761
5854 5852 5850 5849 5847 5845 5843 5845 5842 5835 5830 5826 5822 5818 5813 5809 5805 5801 5797 5794 5791 5788 5786 5784 5782 5779 5777 5774 5771 5768 5765 5762 5758 5754 5749 5746 5742 5739 5737 5736 5737 5738 5739 5741 5743 5745 5747 5750 5751
5850 5848 5847 5845 5842 5840 5837 5839 5835 5829 5824 5820 5815 5810 5806 5801 5797 5792 5788 5785 5781 5778 5776 5774 5772 5769 5767 5764 5761 5758 5755 5751 5747 5742 5738 5734 5730 5727 5724 5723 5725 5727 5728 5731 5733 5733 5737 5740 5742
Wind_Speed
13 15 15 14 16 18 9 2 4 5 6 7 7 8 9 8 6 7 7 7 5 4 3 2 1 2 4 5 6 7 8 8 8 8 9 9 9 9 10 10 10 10 9 9 9 8 8 8 8
11 12 12 12 17 14 6 2 2 2 3 5 6 6 6 7 7 7 7 5 4 3 2 1 1 2 4 5 6 7 8 9 9 9 9 9 8 9 9 10 10 10 10 10 9 9 9 8 8
8 9 8 10 15 10 5 4 2 1 0 1 3 4 4 5 6 6 6 5 4 3 3 2 1 2 3 4 6 7 8 9 9 9 9 9 8 8 8 9 9 9 10 10 10 10 10 10 9
8 8 8 12 8 6 4 4 4 3 2 2 3 3 4 5 6 6 7 6 5 4 4 3 2 2 3 4 5 7 8 8 9 9 9 8 8 8 8 8 8 8 9 10 10 10 10 10 10
8 8 8 6 3 4 5 4 4 4 3 4 5 5 5 6 7 8 8 8 7 6 6 5 5 4 4 5 5 6 7 8 9 9 9 9 8 8 7 7 7 7 8 8 9 9 10 11 11
10 10 8 1 1 5 7 4 3 5 4 5 6 7 8 8 9 10 11 11 10 8 8 8 8 7 7 7 7 7 8 9 9 9 10 9 9 9 8 8 8 8 8 8 9 9 9 10 11
11 10 8 2 4 8 10 6 4 5 5 5 6 7 8 10 11 12 13 14 13 11 11 11 12 11 10 9 9 10 10 10 11 11 11 11 10 10 10 10 9 9 9 9 10 10 10 10 11
10 10 8 2 5 9 12 9 6 5 5 5 5 7 5 8 10 12 13 15 15 14 14 14 15 15 14 13 12 12 12 12 12 13 13 13 12 12 12 12 11 11 11 11 11 11 11 11 11
10 10 7 4 5 8 10 7 7 7 6 6 5 6 6 6 8 10 11 13 15 15 15 16 17 17 17 16 15 14 14 14 14 14 15 14 14 13 14 14 14 14 14 14 14 14 14 14 13
12 12 8 8 11 11 9 7 8 6 9 9 8 8 7 7 7 9 10 11 13 14 15 15 16 17 17 17 17 16 16 16 16 17 17 16 15 15 15 16 16 16 17 17 17 17 17 17 16
15 15 14 13 15 15 11 10 10 7 9 12 11 12 11 11 11 11 11 12 13 14 15 15 15 16 17 17 18 18 18 18 19 19 19 18 18 17 17 18 18 19 20 20 20 20 21 21 20
20 19 19 18 17 16 15 14 13 13 14 17 16 16 16 16 16 15 15 16 16 16 17 17 17 18 19 19 20 20 21 21 21 22 22 22 22 21 21 21 21 22 23 23 23 23 24 24 24
25 24 23 22 21 20 20 19 18 19 21 21 21 21 21 21 21 21 21 21 21 21 21 21 21 22 22 23 23 24 24 24 25 25 26 27 27 26 26 26 26 27 27 27 27 27 27 27 27
29 29 27 25 25 25 25 24 23 23 26 26 25 26 26 26 26 26 26 26 26 26 26 26 26 26 27 27 28 28 28 28 29 29 29 30 31 31 31 31 31 32 32 32 32 31 31 31 31
32 31 29 28 29 30 31 29 25 26 31 31 30 29 29 30 30 31 31 31 31 31 31 30 31 31 31 31 32 32 33 33 33 33 33 34 35 35 35 35 36 36 36 36 36 36 35 35 35
32 31 31 28 30 33 34 31 25 31 35 35 34 32 32 34 34 35 36 36 36 37 36 35 36 36 36 37 37 37 37 37 37 37 37 37 38 38 38 39 39 40 40 40 40 40 39 39 39
30 29 28 23 29 34 35 31 26 33 38 40 39 39 38 39 40 40 40 40 41 42 41 41 41 41 41 41 41 40 40 40 40 41 41 40 40 40 41 42 42 42 43 44 44 43 42 41 41
18 17 17 17 23 34 37 33 26 33 41 43 43 43 44 44 44 44 44 43 45 45 45 45 44 45 45 44 43 42 42 42 42 42 42 42 42 42 43 44 44 45 45 46 46 45 45 43 43
24 24 23 22 25 35 39 36 29 32 40 44 44 43 43 44 44 43 43 44 45 46 46 45 45 45 45 44 43 43 43 43 43 43 44 44 44 45 46 45 46 47 47 47 46 45 44 44 44
17 20 23 24 25 32 34 32 27 28 35 39 39 39 40 41 41 41 40 41 42 43 44 43 43 43 43 44 44 44 44 44 44 45 45 45 46 47 47 46 47 47 46 45 44 44 42 42 41
13 13 17 21 25 27 27 26 23 25 32 36 38 37 36 37 37 38 38 39 40 41 41 42 42 42 43 43 43 44 44 45 45 46 46 47 48 48 48 48 47 48 47 46 45 43 41 41 40
14 17 23 24 25 25 24 26 23 22 31 36 39 38 36 35 36 37 37 38 39 40 40 41 41 42 43 44 44 45 45 46 46 47 48 49 49 49 49 50 49 48 47 47 45 43 42 40 39
19 22 24 24 24 24 21 24 21 19 25 32 36 37 36 36 35 36 37 37 38 39 40 41 41 42 43 44 46 46 47 47 48 49 50 51 51 51 51 50 50 49 48 47 45 43 42 40 38
19 20 20 18 18 19 17 20 18 19 25 30 36 38 39 38 36 35 35 36 36 37 38 39 40 41 42 43 45 46 47 48 49 50 51 51 52 52 51 51 51 50 49 47 45 43 42 40 38
16 17 15 11 11 16 17 19 17 23 28 31 35 39 40 39 37 36 35 34 34 35 35 36 37 38 39 41 43 45 46 48 48 49 50 52 52 52 52 52 52 51 50 47 45 43 42 40 37
14 14 13 15 15 15 17 20 22 29 31 32 33 35 37 38 38 37 36 36 35 35 35 36 36 37 38 40 42 43 45 47 48 49 50 51 52 53 53 54 53 52 50 47 44 43 42 40 38
13 12 13 17 17 16 14 15 22 28 31 33 34 36 38 39 39 38 38 38 37 37 37 37 37 38 39 40 41 43 44 46 47 48 50 51 52 54 54 53 52 50 48 47 44 42 41 39 37
14 15 16 18 20 20 17 16 22 30 34 38 40 40 40 40 41 41 40 39 39 39 39 39 39 40 40 41 41 42 43 45 46 47 48 50 51 51 51 51 49 48 47 46 44 42 40 38 37
16 17 19 21 23 24 25 21 21 29 35 38 40 41 41 41 40 40 40 40 40 40 40 40 40 41 41 41 41 42 43 44 44 45 46 46 46 46 47 46 45 44 43 43 42 42 41 39 37
15 18 21 23 23 24 27 23 21 28 33 37 39 40 40 41 41 41 40 40 40 40 40 40 40 40 40 40 41 41 42 42 41 41 40 40 40 39 38 37 37 38 37 38 37 36 36 36 35
Wind_Direction
98 95 96 93 81 69 61 98 130 138 143 145 144 151 157 146 142 149 154 160 161 162 155 135 54 31 34 30 21 10 4 2 2 3 5 8 12 16 19 21 23 23 21 19 17 13 11 10 11
107 105 101 89 72 68 40 4 61 98 140 153 160 170 171 163 166 164 170 175 184 190 184 175 1 10 19 23 19 10 2 359 359 358 358 359 2 5 10 15 18 20 19 16 13 10 6 0 358
121 116 106 71 47 41 17 354 21 16 42 204 204 197 193 192 188 186 188 192 203 219 226 237 293 344 3 10 11 6 1 357 356 355 354 352 352 354 0 6 11 15 16 15 11 8 5 1 353
141 122 104 62 35 20 333 343 358 327 317 286 268 247 232 224 221 218 215 215 216 227 240 252 271 308 339 352 357 357 356 353 352 351 351 349 346 345 349 355 1 6 10 11 10 7 3 359 353
159 146 100 56 27 331 305 318 335 312 289 288 280 272 263 257 251 247 243 237 234 238 249 258 270 287 306 323 334 340 343 343 343 343 343 343 344 342 337 339 346 352 356 360 2 2 1 358 352
172 158 104 349 271 289 284 291 312 297 300 285 277 269 264 264 263 263 262 257 251 251 258 264 270 277 288 300 312 319 322 325 327 328 330 329 327 329 327 323 326 330 336 340 346 350 351 352 350
186 173 137 16 321 289 276 269 265 279 278 286 279 274 265 264 267 268 270 269 264 262 266 271 274 278 283 289 296 300 302 307 310 312 316 319 316 314 315 313 312 314 319 323 327 331 334 338 340
192 183 152 135 286 277 275 269 263 272 281 284 280 278 270 271 272 273 274 276 275 272 272 275 278 280 280 282 286 289 291 295 298 301 305 308 307 305 306 305 304 304 307 311 313 315 319 323 326
197 188 159 184 222 263 271 264 272 270 288 287 282 282 274 277 277 280 280 281 281 280 278 279 280 280 280 281 282 284 286 288 290 293 296 299 299 299 300 300 300 298 299 300 302 303 306 309 312
209 197 184 232 216 229 255 255 260 282 297 293 286 282 285 286 286 287 287 288 287 286 283 282 284 285 284 283 283 284 285 286 287 290 293 295 294 294 295 296 296 296 295 295 295 296 296 298 298
223 218 217 233 235 238 245 254 260 266 277 275 277 287 289 290 290 290 290 292 292 291 290 290 289 290 289 287 286 286 287 288 289 290 293 294 294 294 293 293 293 293 294 293 292 292 292 291 291
234 232 237 242 244 246 251 256 261 262 262 268 277 283 286 287 288 290 291 291 291 293 293 294 294 293 292 291 289 289 290 291 292 292 293 294 295 295 295 294 292 292 292 293 292 290 289 288 287
239 241 245 250 254 256 258 260 264 267 268 271 274 277 280 282 285 286 287 288 290 291 292 293 293 293 293 292 290 290 290 291 293 293 294 295 296 296 295 295 294 293 292 292 291 289 288 286 285
242 245 249 256 262 264 265 265 269 274 273 272 274 277 279 280 282 284 284 285 286 287 289 290 291 291 292 292 291 291 291 291 292 293 293 294 295 295 294 294 294 293 292 291 290 288 286 285 284
247 252 257 262 268 269 268 269 273 271 270 273 276 278 279 280 281 282 283 284 285 285 286 288 289 290 291 291 291 290 291 291 291 291 291 292 293 293 293 294 293 292 291 291 289 287 285 283 283
253 257 262 268 271 268 269 271 273 269 271 274 276 277 278 281 281 282 283 284 284 285 286 287 288 289 289 289 289 289 290 289 289 289 290 290 290 291 292 291 291 291 290 289 287 287 286 285 283
260 265 269 269 269 270 269 270 266 271 272 274 277 279 279 280 281 281 282 283 284 285 285 286 287 287 287 287 287 287 288 287 287 288 288 288 288 289 289 290 290 289 289 287 286 286 286 285 284
250 254 263 254 259 269 270 271 267 268 272 275 277 279 281 280 281 282 282 282 282 283 284 284 284 284 284 284 285 285 285 285 285 286 287 287 287 287 287 287 288 289 289 287 286 285 286 285 285
243 236 230 236 249 261 269 275 272 266 272 276 279 280 280 281 281 280 280 280 280 281 281 281 281 281 281 281 282 281 282 282 282 283 283 285 286 286 286 285 287 289 289 288 287 287 288 286 286
254 249 246 250 260 268 276 283 282 275 276 280 283 283 282 282 282 281 280 278 278 278 279 279 279 279 278 278 278 278 279 279 280 280 281 283 284 284 284 284 286 288 289 289 288 289 288 288 287
260 264 258 251 256 272 286 291 294 291 286 289 290 288 286 286 285 283 281 279 279 278 278 278 277 277 276 276 277 276 277 277 278 279 279 281 281 282 283 285 285 286 287 288 288 288 287 286 284
261 257 261 270 277 281 283 285 285 283 286 289 290 290 290 291 289 286 285 282 280 279 278 276 276 276 275 275 276 276 277 277 278 278 278 279 280 280 281 283 284 285 286 286 286 288 285 284 283
269 270 276 284 286 287 290 289 290 282 277 280 285 290 294 295 292 290 287 284 281 280 278 277 276 276 275 276 276 277 277 278 277 277 277 278 279 279 280 281 281 282 282 284 284 284 282 282 280
284 282 285 291 297 296 289 277 277 267 266 273 283 290 293 295 294 292 290 287 284 282 281 279 278 276 276 276 277 278 279 279 279 278 278 278 278 278 278 278 279 279 280 282 282 282 281 277 276
289 294 297 293 292 294 289 288 293 285 285 286 288 290 293 295 295 294 292 290 288 285 284 282 280 279 278 278 278 279 279 280 279 279 279 279 278 278 277 277 276 277 278 278 278 279 277 274 271
295 295 297 291 283 278 284 299 295 288 291 291 290 291 293 294 293 293 292 290 289 287 285 284 282 281 280 280 281 281 281 281 281 280 280 279 279 278 277 276 275 275 274 272 274 274 274 271 268
302 299 295 294 298 298 298 293 288 287 290 293 296 298 298 296 295 295 293 291 289 287 285 284 284 283 283 283 283 283 283 283 283 282 281 280 280 279 277 275 274 272 269 268 268 269 270 266 262
306 307 306 306 305 302 298 293 290 291 292 295 300 302 301 300 299 297 295 293 289 286 284 283 283 283 284 284 284 284 284 284 285 284 283 282 281 278 276 274 271 268 265 266 265 264 264 262 261
302 302 302 300 299 299 299 296 291 289 290 295 298 301 303 304 303 301 298 295 291 287 284 284 283 284 284 285 285 285 286 287 287 287 286 284 282 280 276 272 268 265 264 264 262 261 258 259 258
286 291 299 303 304 302 303 310 301 292 294 297 300 303 306 307 306 304 301 297 293 289 287 285 284 284 285 285 286 288 289 290 290 290 289 288 285 280 274 270 268 264 262 261 259 256 254 255 254